Date,TemperatureHighF,TemperatureAvgF,TemperatureLowF,DewpointHighF,DewpointAvgF,DewpointLowF,HumidityHigh,HumidityAvg,HumidityLow,PressureMaxIn,PressureMinIn,WindSpeedMaxMPH,WindSpeedAvgMPH,GustSpeedMaxMPH,PrecipitationSumIn
2013-1-1,27,14,2,-100,-100,-100,0,0,100,0.00,40.00,0,-999,0,0.05
2013-1-2,35,22,3,-100,-100,-100,0,0,100,0.00,40.00,0,-999,0,0.02
2013-1-3,29,20,3,-100,-100,-100,0,0,100,0.00,40.00,0,-999,0,0.01
2013-1-4,37,15,2,-100,-100,-100,0,0,100,0.00,40.00,0,-999,0,0.00
2013-1-5,38,22,4,-100,-100,-100,0,0,100,0.00,40.00,0,-999,0,0.00
2013-1-6,40,25,10,-100,-100,-100,0,0,100,0.00,40.00,0,-999,0,0.00
2013-1-7,38,29,16,-100,-100,-100,0,0,100,0.00,40.00,0,-999,0,0.00
2013-1-8,44,25,8,-100,-100,-100,0,0,100,0.00,40.00,0,-999,0,0.00
2013-1-9,48,30,16,-100,-100,-100,0,0,100,0.00,40.00,0,-999,0,0.00
2013-1-10,36,34,30,-100,-100,-100,0,0,100,0.00,40.00,0,-999,0,0.00
2013-1-11,58,36,22,-100,-100,-100,0,0,100,0.00,40.00,0,-999,0,0.00
2013-1-12,21,16,9,-100,-100,-100,0,0,100,0.00,40.00,0,-999,0,0.00
2013-1-13,22,11,4,-100,-100,-100,0,0,100,0.00,40.00,0,-999,0,0.00
2013-1-14,27,15,1,-100,-100,-100,0,0,100,0.00,40.00,0,-999,0,0.00
2013-1-15,33,17,6,-100,-100,-100,0,0,100,0.00,40.00,0,-999,0,0.00
2013-1-16,50,35,18,-100,-100,-100,0,0,100,0.00,40.00,0,-999,0,0.00
2013-1-17,52,33,21,-100,-100,-100,0,0,100,0.00,40.00,0,-999,0,0.00
2013-1-18,57,37,22,-100,-100,-100,0,0,100,0.00,40.00,0,-999,0,0.00
2013-1-19,58,38,23,-100,-100,-100,0,0,100,0.00,40.00,0,-999,0,0.00
2013-1-20,32,25,17,-100,-100,-100,0,0,100,0.00,40.00,0,-999,0,0.00
2013-1-21,38,23,12,-100,-100,-100,0,0,100,0.00,40.00,0,-999,0,0.00
2013-1-22,35,20,8,-100,-100,-100,0,0,100,0.00,40.00,0,-999,0,0.00
2013-1-23,41,26,15,-100,-100,-100,0,0,100,0.00,40.00,0,-999,0,0.00
2013-1-24,29,19,10,-100,-100,-100,0,0,100,0.00,40.00,0,-999,0,0.00
2013-1-25,55,34,18,-100,-100,-100,0,0,100,0.00,40.00,0,-999,0,0.00
2013-1-26,56,37,18,-100,-100,-100,0,0,100,0.00,40.00,0,-999,0,0.00
2013-1-27,48,38,27,-100,-100,-100,0,0,100,0.00,40.00,0,-999,0,0.06
2013-1-28,51,34,25,-100,-100,-100,0,0,100,0.00,40.00,0,-999,0,0.00
2013-1-29,37,33,30,-100,-100,-100,0,0,100,0.00,40.00,0,-999,0,0.00
2013-1-30,35,25,19,-100,-100,-100,0,0,100,0.00,40.00,0,-999,0,0.00
2013-1-31,26,23,14,-100,-100,-100,0,0,100,0.00,40.00,0,-999,0,0.00
2013-2-1,49,32,18,-100,-100,-100,0,0,100,0.00,40.00,0,-999,0,0.00
2013-2-2,54,39,27,-100,-100,-100,0,0,100,0.00,40.00,0,-999,0,0.00
2013-2-3,52,34,19,-100,-100,-100,0,0,100,0.00,40.00,0,-999,0,0.00
2013-2-4,55,39,26,-100,-100,-100,0,0,100,0.00,40.00,0,-999,0,0.00
2013-2-5,57,39,24,-100,-100,-100,0,0,100,0.00,40.00,0,-999,0,0.00
2013-2-6,61,41,27,-100,-100,-100,0,0,100,0.00,40.00,0,-999,0,0.00
2013-2-7,55,42,21,-100,-100,-100,0,0,100,0.00,40.00,0,-999,0,0.00
2013-2-8,55,39,26,-100,-100,-100,0,0,100,0.00,40.00,0,-999,0,0.00
2013-2-9,57,43,35,-100,-100,-100,0,0,100,0.00,40.00,0,-999,0,0.01
2013-2-10,41,34,25,-100,-100,-100,0,0,100,0.00,40.00,0,-999,0,0.03
2013-2-11,38,27,20,-100,-100,-100,0,0,100,0.00,40.00,0,-999,0,0.00
2013-2-12,46,29,15,-100,-100,-100,0,0,100,0.00,40.00,0,-999,0,0.00
2013-2-13,55,37,20,-100,-100,-100,0,0,100,0.00,40.00,0,-999,0,0.00
2013-2-14,43,33,16,-100,-100,-100,0,0,100,0.00,40.00,0,-999,0,0.00
2013-2-15,38,22,10,-100,-100,-100,0,0,100,0.00,40.00,0,-999,0,0.00
2013-2-16,59,35,11,-100,-100,-100,0,0,100,0.00,40.00,0,-999,0,0.00
2013-2-17,69,42,22,-100,-100,-100,0,0,100,0.00,40.00,0,-999,0,0.00
2013-2-18,47,38,19,-100,-100,-100,0,0,100,0.00,40.00,0,-999,0,0.00
2013-2-19,40,26,9,-100,-100,-100,0,0,100,0.00,40.00,0,-999,0,0.00
2013-2-20,22,19,16,-100,-100,-100,0,0,100,0.00,40.00,0,-999,0,0.00
2013-2-21,20,17,15,-100,-100,-100,0,0,100,0.00,40.00,0,-999,0,0.00
2013-2-22,27,12,4,-100,-100,-100,0,0,100,0.00,40.00,0,-999,0,0.07
2013-2-23,41,22,5,-100,-100,-100,0,0,100,0.00,40.00,0,-999,0,0.13
2013-2-24,32,25,15,-100,-100,-100,0,0,100,0.00,40.00,0,-999,0,0.01
2013-2-25,35,30,21,-100,-100,-100,0,0,100,0.00,40.00,0,-999,0,0.00
2013-2-26,32,19,5,-100,-100,-100,0,0,100,0.00,40.00,0,-999,0,0.00
2013-2-27,36,29,19,-100,-100,-100,0,0,100,0.00,40.00,0,-999,0,0.00
2013-2-28,39,27,18,-100,-100,-100,0,0,100,0.00,40.00,0,-999,0,0.00
2013-3-1,37,27,17,-100,-100,-100,0,0,100,0.00,40.00,0,-999,0,0.00
2013-3-2,56,33,15,-100,-100,-100,0,0,100,0.00,40.00,0,-999,0,0.00
2013-3-3,54,40,29,-100,-100,-100,0,0,100,0.00,40.00,0,-999,0,0.00
2013-3-4,44,37,29,-100,-100,-100,0,0,100,0.00,40.00,0,-999,0,0.03
2013-3-5,42,29,16,-100,-100,-100,0,0,100,0.00,40.00,0,-999,0,0.03
2013-3-6,45,29,14,-100,-100,-100,0,0,100,0.00,40.00,0,-999,0,0.00
2013-3-7,54,36,24,-100,-100,-100,0,0,100,0.00,40.00,0,-999,0,0.00
2013-3-8,62,43,25,-100,-100,-100,0,0,100,0.00,40.00,0,-999,0,0.00
2013-3-9,63,50,33,-100,-100,-100,0,0,100,0.00,40.00,0,-999,0,0.00
2013-3-10,33,29,20,-100,-100,-100,0,0,100,0.00,40.00,0,-999,0,0.00
2013-3-11,54,34,15,-100,-100,-100,0,0,100,0.00,40.00,0,-999,0,0.00
2013-3-12,48,36,18,-100,-100,-100,0,0,100,0.00,40.00,0,-999,0,0.00
2013-3-13,68,40,18,-100,-100,-100,0,0,100,0.00,40.00,0,-999,0,0.03
2013-3-14,76,53,35,-100,-100,-100,0,0,100,0.00,40.00,0,-999,0,0.03
2013-3-15,81,58,36,-100,-100,-100,0,0,100,0.00,40.00,0,-999,0,0.00
2013-3-16,54,40,32,-100,-100,-100,0,0,100,0.00,40.00,0,-999,0,0.05
2013-3-17,52,35,28,-100,-100,-100,0,0,100,0.00,40.00,0,-999,0,0.07
2013-3-18,53,39,24,-100,-100,-100,0,0,100,0.00,40.00,0,-999,0,0.02
2013-3-19,51,38,26,-100,-100,-100,0,0,100,0.00,40.00,0,-999,0,0.00
2013-3-20,49,32,11,-100,-100,-100,0,0,100,0.00,40.00,0,-999,0,0.00
2013-3-21,51,38,28,-100,-100,-100,0,0,100,0.00,40.00,0,-999,0,0.00
2013-3-22,50,37,21,-100,-100,-100,0,0,100,0.00,40.00,0,-999,0,0.00
2013-3-23,36,30,25,-100,-100,-100,0,0,100,0.00,40.00,0,-999,0,0.02
2013-3-24,31,22,7,-100,-100,-100,0,0,100,0.00,40.00,0,-999,0,0.01
2013-3-25,32,22,14,-100,-100,-100,0,0,100,0.00,40.00,0,-999,0,0.01
2013-3-26,52,28,8,-100,-100,-100,0,0,100,0.00,40.00,0,-999,0,0.11
2013-3-27,56,41,28,-100,-100,-100,0,0,100,0.00,40.00,0,-999,0,0.01
2013-3-28,68,47,25,-100,-100,-100,0,0,100,0.00,40.00,0,-999,0,0.00
2013-3-29,71,52,29,-100,-100,-100,0,0,100,0.00,40.00,0,-999,0,0.10
2013-3-30,69,54,40,-100,-100,-100,0,0,100,0.00,40.00,0,-999,0,0.15
2013-3-31,69,50,36,-100,-100,-100,0,0,100,0.00,40.00,0,-999,0,0.06
2013-4-1,48,39,28,-100,-100,-100,0,0,100,0.00,40.00,0,-999,0,0.00
2013-4-2,50,41,30,-100,-100,-100,0,0,100,0.00,40.00,0,-999,0,0.00
2013-4-3,54,40,32,-100,-100,-100,0,0,100,0.00,40.00,0,-999,0,0.00
2013-4-4,68,47,22,-100,-100,-100,0,0,100,0.00,40.00,0,-999,0,0.00
2013-4-5,78,58,36,-100,-100,-100,0,0,100,0.00,40.00,0,-999,0,0.00
2013-4-6,73,60,40,-100,-100,-100,0,0,100,0.00,40.00,0,-999,0,0.00
2013-4-7,75,57,40,-100,-100,-100,0,0,100,0.00,40.00,0,-999,0,0.00
2013-4-8,67,52,38,-100,-100,-100,0,0,100,0.00,40.00,0,-999,0,0.00
2013-4-9,64,32,21,-100,-100,-100,0,0,100,0.00,40.00,0,-999,0,0.01
2013-4-10,28,25,20,-100,-100,-100,0,0,100,0.00,40.00,0,-999,0,0.01
2013-4-11,44,30,17,-100,-100,-100,0,0,100,0.00,40.00,0,-999,0,0.00
2013-4-12,54,37,22,-100,-100,-100,0,0,100,0.00,40.00,0,-999,0,0.03
2013-4-13,69,48,26,-100,-100,-100,0,0,100,0.00,40.00,0,-999,0,0.04
2013-4-14,63,54,30,-100,-100,-100,0,0,100,0.00,40.00,0,-999,0,0.01
2013-4-15,51,40,29,-100,-100,-100,0,0,100,0.00,40.00,0,-999,0,0.00
2013-4-16,45,40,34,-100,-100,-100,0,0,100,0.00,40.00,0,-999,0,0.00
2013-4-17,41,36,30,-100,-100,-100,0,0,100,0.00,40.00,0,-999,0,0.00
2013-4-18,35,30,27,-100,-100,-100,0,0,100,0.00,40.00,0,-999,0,0.01
2013-4-19,57,39,22,-100,-100,-100,0,0,100,0.00,40.00,0,-999,0,0.01
2013-4-20,59,44,29,-100,-100,-100,0,0,100,0.00,40.00,0,-999,0,0.00
2013-4-21,73,52,31,-100,-100,-100,0,0,100,0.00,40.00,0,-999,0,0.00
2013-4-22,51,42,31,-100,-100,-100,0,0,100,0.00,40.00,0,-999,0,0.15
2013-4-23,40,31,23,-100,-100,-100,0,0,100,0.00,40.00,0,-999,0,0.01
2013-4-24,61,39,19,-100,-100,-100,0,0,100,0.00,40.00,0,-999,0,0.00
2013-4-25,73,48,21,-100,-100,-100,0,0,100,0.00,40.00,0,-999,0,0.00
2013-4-26,75,61,49,-100,-100,-100,0,0,100,0.00,40.00,0,-999,0,0.00
2013-4-27,76,57,33,-100,-100,-100,0,0,100,0.00,40.00,0,-999,0,0.00
2013-4-28,90,68,45,-100,-100,-100,0,0,100,0.00,40.00,0,-999,0,0.00
2013-4-29,82,64,49,-100,-100,-100,0,0,100,0.00,40.00,0,-999,0,0.03
2013-4-30,73,64,55,-100,-100,-100,0,0,100,0.00,40.00,0,-999,0,0.03
2013-5-1,58,39,33,-100,-100,-100,0,0,100,0.00,40.00,0,-999,0,0.09
2013-5-2,53,40,32,-100,-100,-100,0,0,100,0.00,40.00,0,-999,0,0.04
2013-5-3,59,41,24,-100,-100,-100,0,0,100,0.00,40.00,0,-999,0,0.00
2013-5-4,58,43,29,-100,-100,-100,0,0,100,0.00,40.00,0,-999,0,0.00
2013-5-5,65,46,30,-100,-100,-100,0,0,100,0.00,40.00,0,-999,0,0.00
2013-5-6,70,52,29,-100,-100,-100,0,0,100,0.00,40.00,0,-999,0,0.00
2013-5-7,68,58,50,-100,-100,-100,0,0,100,0.00,40.00,0,-999,0,0.15
2013-5-8,74,61,48,-100,-100,-100,0,0,100,0.00,40.00,0,-999,0,0.13
2013-5-9,63,56,49,-100,-100,-100,0,0,100,0.00,40.00,0,-999,0,0.08
2013-5-10,73,56,39,-100,-100,-100,0,0,100,0.00,40.00,0,-999,0,0.07
2013-5-11,68,56,45,-100,-100,-100,0,0,100,0.00,40.00,0,-999,0,0.00
2013-5-12,78,59,38,-100,-100,-100,0,0,100,0.00,40.00,0,-999,0,0.00
2013-5-13,94,70,40,-100,-100,-100,0,0,100,0.00,40.00,0,-999,0,0.00
2013-5-14,99,76,50,-100,-100,-100,0,0,100,0.00,40.00,0,-999,0,0.16
2013-5-15,85,72,57,-100,-100,-100,0,0,100,0.00,40.00,0,-999,0,0.15
2013-5-16,85,67,57,-100,-100,-100,0,0,100,0.00,40.00,0,-999,0,0.62
2013-5-17,83,68,52,-100,-100,-100,0,0,100,0.00,40.00,0,-999,0,0.62
2013-5-18,81,71,64,-100,-100,-100,0,0,100,0.00,40.00,0,-999,0,0.00
2013-5-19,76,64,56,-100,-100,-100,0,0,100,0.00,40.00,0,-999,0,0.00
2013-5-20,72,61,52,-100,-100,-100,0,0,100,0.00,40.00,0,-999,0,0.00
2013-5-21,69,60,51,-100,-100,-100,0,0,100,0.00,40.00,0,-999,0,0.00
2013-5-22,74,59,46,-100,-100,-100,0,0,100,0.00,40.00,0,-999,0,0.00
2013-5-23,70,58,47,-100,-100,-100,0,0,100,0.00,40.00,0,-999,0,0.02
2013-5-24,83,66,55,-100,-100,-100,0,0,100,0.00,40.00,0,-999,0,0.02
2013-5-25,92,77,66,-100,-100,-100,0,0,100,0.00,40.00,0,-999,0,0.00
2013-5-26,97,80,67,-100,-100,-100,0,0,100,0.00,40.00,0,-999,0,0.00
2013-5-27,81,72,65,-100,-100,-100,0,0,100,0.00,40.00,0,-999,0,0.00
2013-5-28,85,70,58,-100,-100,-100,0,0,100,0.00,40.00,0,-999,0,0.00
2013-5-29,88,71,58,-100,-100,-100,0,0,100,0.00,40.00,0,-999,0,0.89
2013-5-30,63,56,54,-100,-100,-100,0,0,100,0.00,40.00,0,-999,0,0.89
2013-5-31,80,73,59,-100,-100,-100,0,0,100,0.00,40.00,0,-999,0,0.00
2013-6-1,69,60,51,-100,-100,-100,0,0,100,0.00,40.00,0,-999,0,0.00
2013-6-2,74,57,38,-100,-100,-100,0,0,100,0.00,40.00,0,-999,0,0.00
2013-6-3,89,68,51,-100,-100,-100,0,0,100,0.00,40.00,0,-999,0,0.00
2013-6-4,76,68,59,-100,-100,-100,0,0,100,0.00,40.00,0,-999,0,0.00
2013-6-5,67,60,53,-100,-100,-100,0,0,100,0.00,40.00,0,-999,0,0.38
2013-6-6,77,60,42,-100,-100,-100,0,0,100,0.00,40.00,0,-999,0,0.01
2013-6-7,82,66,46,-100,-100,-100,0,0,100,0.00,40.00,0,-999,0,0.00
2013-6-8,78,67,57,-100,-100,-100,0,0,100,0.00,40.00,0,-999,0,0.01
2013-6-9,87,68,49,-100,-100,-100,0,0,100,0.00,40.00,0,-999,0,0.01
2013-6-10,104,77,50,-100,-100,-100,0,0,100,0.00,40.00,0,-999,0,0.00
2013-6-11,108,90,69,-100,-100,-100,0,0,100,0.00,40.00,0,-999,0,0.00
2013-6-12,93,82,67,-100,-100,-100,0,0,100,0.00,40.00,0,-999,0,0.00
2013-6-13,87,69,55,-100,-100,-100,0,0,100,0.00,40.00,0,-999,0,0.03
2013-6-14,105,81,68,-100,-100,-100,0,0,100,0.00,40.00,0,-999,0,0.03
2013-6-15,91,78,65,-100,-100,-100,0,0,100,0.00,40.00,0,-999,0,0.00
2013-6-16,90,73,57,-100,-100,-100,0,0,100,0.00,40.00,0,-999,0,0.08
2013-6-17,85,70,53,-100,-100,-100,0,0,100,0.00,40.00,0,-999,0,0.08
2013-6-18,90,73,59,-100,-100,-100,0,0,100,0.00,40.00,0,-999,0,0.03
2013-6-19,89,75,62,-100,-100,-100,0,0,100,0.00,40.00,0,-999,0,0.03
2013-6-20,98,78,70,-100,-100,-100,0,0,100,0.00,40.00,0,-999,0,0.00
2013-6-22,98,91,77,-100,-100,-100,0,0,100,0.00,40.00,0,-999,0,0.00
2013-6-23,88,78,65,-100,-100,-100,0,0,100,0.00,40.00,0,-999,0,0.00
2013-6-24,102,83,65,-100,-100,-100,0,0,100,0.00,40.00,0,-999,0,0.00
2013-6-25,97,84,70,-100,-100,-100,0,0,100,0.00,40.00,0,-999,0,0.00
2013-6-26,102,84,56,-100,-100,-100,0,0,100,0.00,40.00,0,-999,0,0.00
2013-6-27,101,84,68,-100,-100,-100,0,0,100,0.00,40.00,0,-999,0,0.00
2013-6-28,92,77,62,-100,-100,-100,0,0,100,0.00,40.00,0,-999,0,0.00
2013-6-29,86,73,57,-100,-100,-100,0,0,100,0.00,40.00,0,-999,0,0.00
2013-6-30,83,69,50,-100,-100,-100,0,0,100,0.00,40.00,0,-999,0,0.00
2013-7-1,82,65,45,-100,-100,-100,0,0,100,0.00,40.00,0,-999,0,0.00
2013-7-2,84,68,43,-100,-100,-100,0,0,100,0.00,40.00,0,-999,0,0.00
2013-7-3,90,75,52,-100,-100,-100,0,0,100,0.00,40.00,0,-999,0,0.00
2013-7-4,95,79,58,-100,-100,-100,0,0,100,0.00,40.00,0,-999,0,0.00
2013-7-5,98,85,70,-100,-100,-100,0,0,100,0.00,40.00,0,-999,0,0.00
2013-7-6,105,83,73,-100,-100,-100,0,0,100,0.00,40.00,0,-999,0,0.16
2013-7-7,97,83,71,-100,-100,-100,0,0,100,0.00,40.00,0,-999,0,0.16
2013-7-8,100,79,66,-100,-100,-100,0,0,100,0.00,40.00,0,-999,0,0.01
2013-7-9,101,87,68,-100,-100,-100,0,0,100,0.00,40.00,0,-999,0,0.01
2013-7-10,88,79,68,-100,-100,-100,0,0,100,0.00,40.00,0,-999,0,1.57
2013-7-11,94,79,66,-100,-100,-100,0,0,100,0.00,40.00,0,-999,0,0.46
2013-7-12,103,87,73,-100,-100,-100,0,0,100,0.00,40.00,0,-999,0,0.07
2013-7-13,106,90,74,-100,-100,-100,0,0,100,0.00,40.00,0,-999,0,0.00
2013-7-14,91,81,71,-100,-100,-100,0,0,100,0.00,40.00,0,-999,0,0.00
2013-7-15,88,73,59,-100,-100,-100,0,0,100,0.00,40.00,0,-999,0,0.00
2013-7-16,85,73,65,-100,-100,-100,0,0,100,0.00,40.00,0,-999,0,0.00
2013-7-17,89,77,60,-100,-100,-100,0,0,100,0.00,40.00,0,-999,0,0.00
2013-7-18,94,84,67,-100,-100,-100,0,0,100,0.00,40.00,0,-999,0,0.00
2013-7-19,96,81,66,-100,-100,-100,0,0,100,0.00,40.00,0,-999,0,0.00
2013-7-20,90,76,60,-100,-100,-100,0,0,100,0.00,40.00,0,-999,0,0.00
2013-7-21,92,76,60,-100,-100,-100,0,0,100,0.00,40.00,0,-999,0,0.00
2013-7-22,97,82,68,-100,-100,-100,0,0,100,0.00,40.00,0,-999,0,0.00
2013-7-23,91,78,68,-100,-100,-100,0,0,100,0.00,40.00,0,-999,0,0.00
2013-7-24,91,74,59,-100,-100,-100,0,0,100,0.00,40.00,0,-999,0,0.00
2013-7-25,79,70,64,-100,-100,-100,0,0,100,0.00,40.00,0,-999,0,1.05
2013-7-26,83,71,61,-100,-100,-100,0,0,100,0.00,40.00,0,-999,0,0.25
2013-7-27,65,61,58,-100,-100,-100,0,0,100,0.00,40.00,0,-999,0,0.05
2013-7-28,61,59,56,-100,-100,-100,0,0,100,0.00,40.00,0,-999,0,0.06
2013-7-29,74,66,61,-100,-100,-100,0,0,100,0.00,40.00,0,-999,0,0.01
2013-7-30,83,72,66,-100,-100,-100,0,0,100,0.00,40.00,0,-999,0,0.00
2013-7-31,86,73,64,-100,-100,-100,0,0,100,0.00,40.00,0,-999,0,0.06
2013-8-1,93,80,66,-100,-100,-100,0,0,100,0.00,40.00,0,-999,0,0.03
2013-8-2,89,76,64,-100,-100,-100,0,0,100,0.00,40.00,0,-999,0,0.15
2013-8-3,74,71,68,-100,-100,-100,0,0,100,0.00,40.00,0,-999,0,0.00
2013-8-4,84,73,66,-100,-100,-100,0,0,100,0.00,40.00,0,-999,0,0.00
2013-8-5,87,76,67,-100,-100,-100,0,0,100,0.00,40.00,0,-999,0,0.00
2013-8-6,89,78,70,-100,-100,-100,0,0,100,0.00,40.00,0,-999,0,0.00
2013-8-7,85,73,63,-100,-100,-100,0,0,100,0.00,40.00,0,-999,0,0.49
2013-8-8,76,70,65,-100,-100,-100,0,0,100,0.00,40.00,0,-999,0,0.04
2013-8-9,86,71,57,-100,-100,-100,0,0,100,0.00,40.00,0,-999,0,0.00
2013-8-10,85,71,55,-100,-100,-100,0,0,100,0.00,40.00,0,-999,0,0.00
2013-8-11,89,75,61,-100,-100,-100,0,0,100,0.00,40.00,0,-999,0,0.09
2013-8-12,86,72,59,-100,-100,-100,0,0,100,0.00,40.00,0,-999,0,0.10
2013-8-13,81,70,61,-100,-100,-100,0,0,100,0.00,40.00,0,-999,0,0.00
2013-8-14,64,62,59,-100,-100,-100,0,0,100,0.00,40.00,0,-999,0,0.21
2013-8-15,87,69,60,-100,-100,-100,0,0,100,0.00,40.00,0,-999,0,0.12
2013-8-16,80,69,61,-100,-100,-100,0,0,100,0.00,40.00,0,-999,0,0.12
2013-8-17,76,71,66,-100,-100,-100,0,0,100,0.00,40.00,0,-999,0,0.00
2013-8-18,82,72,62,-100,-100,-100,0,0,100,0.00,40.00,0,-999,0,0.00
2013-8-19,92,75,62,-100,-100,-100,0,0,100,0.00,40.00,0,-999,0,0.00
2013-8-20,95,79,63,-100,-100,-100,0,0,100,0.00,40.00,0,-999,0,0.00
2013-8-21,99,83,68,-100,-100,-100,0,0,100,0.00,40.00,0,-999,0,0.00
2013-8-22,93,80,68,-100,-100,-100,0,0,100,0.00,40.00,0,-999,0,0.02
2013-8-23,96,80,68,-100,-100,-100,0,0,100,0.00,40.00,0,-999,0,0.02
2013-8-24,100,85,70,-100,-100,-100,0,0,100,0.00,40.00,0,-999,0,0.02
2013-8-25,100,87,73,-100,-100,-100,0,0,100,0.00,40.00,0,-999,0,0.00
2013-8-26,102,88,73,-100,-100,-100,0,0,100,0.00,40.00,0,-999,0,0.00
2013-8-27,97,77,67,-100,-100,-100,0,0,100,0.00,40.00,0,-999,0,0.00
2013-8-28,96,90,81,-100,-100,-100,0,0,100,0.00,40.00,0,-999,0,0.00
2013-8-29,103,85,62,-100,-100,-100,0,0,100,0.00,40.00,0,-999,0,0.00
2013-8-30,101,83,62,-100,-100,-100,0,0,100,0.00,40.00,0,-999,0,0.00
2013-8-31,100,82,68,-100,-100,-100,0,0,100,0.00,40.00,0,-999,0,0.08
2013-9-1,86,78,68,-100,-100,-100,0,0,100,0.00,40.00,0,-999,0,0.01
2013-9-2,91,72,50,-100,-100,-100,0,0,100,0.00,40.00,0,-999,0,0.00
2013-9-3,96,80,59,-100,-100,-100,0,0,100,0.00,40.00,0,-999,0,0.00
2013-9-4,99,82,62,-100,-100,-100,0,0,100,0.00,40.00,0,-999,0,0.00
2013-9-5,96,80,61,-100,-100,-100,0,0,100,0.00,40.00,0,-999,0,0.00
2013-9-6,106,84,62,-100,-100,-100,0,0,100,0.00,40.00,0,-999,0,0.00
2013-9-7,106,86,60,-100,-100,-100,0,0,100,0.00,40.00,0,-999,0,0.00
2013-9-8,104,87,59,-100,-100,-100,0,0,100,0.00,40.00,0,-999,0,0.00
2013-9-9,99,86,68,-100,-100,-100,0,0,100,0.00,40.00,0,-999,0,0.00
2013-9-10,95,80,67,-100,-100,-100,0,0,100,0.00,40.00,0,-999,0,0.00
2013-9-11,87,72,66,-100,-100,-100,0,0,100,0.00,40.00,0,-999,0,0.89
2013-9-12,71,67,65,-100,-100,-100,0,0,100,0.00,40.00,0,-999,0,0.60
2013-9-13,70,63,58,-100,-100,-100,0,0,100,0.00,40.00,0,-999,0,0.06
2013-9-14,78,66,59,-100,-100,-100,0,0,100,0.00,40.00,0,-999,0,0.02
2013-9-15,70,65,62,-100,-100,-100,0,0,100,0.00,40.00,0,-999,0,0.00
2013-9-16,61,57,56,-100,-100,-100,0,0,100,0.00,40.00,0,-999,0,0.28
2013-9-17,87,70,57,-100,-100,-100,0,0,100,0.00,40.00,0,-999,0,0.01
2013-9-18,79,71,66,-100,-100,-100,0,0,100,0.00,40.00,0,-999,0,0.00
2013-9-19,78,67,50,-100,-100,-100,0,0,100,0.00,40.00,0,-999,0,0.00
2013-9-20,76,58,46,-100,-100,-100,0,0,100,0.00,40.00,0,-999,0,0.00
2013-9-21,84,66,44,-100,-100,-100,0,0,100,0.00,40.00,0,-999,0,0.00
2013-9-22,87,71,57,-100,-100,-100,0,0,100,0.00,40.00,0,-999,0,0.00
2013-9-23,76,66,58,-100,-100,-100,0,0,100,0.00,40.00,0,-999,0,0.00
2013-9-24,78,64,54,-100,-100,-100,0,0,100,0.00,40.00,0,-999,0,0.00
2013-9-25,87,67,47,-100,-100,-100,0,0,100,0.00,40.00,0,-999,0,0.00
2013-9-26,93,78,63,-100,-100,-100,0,0,100,0.00,40.00,0,-999,0,0.00
2013-9-27,85,75,54,-100,-100,-100,0,0,100,0.00,40.00,0,-999,0,0.70
2013-9-28,68,55,45,-100,-100,-100,0,0,100,0.00,40.00,0,-999,0,0.97
2013-9-29,78,60,39,-100,-100,-100,0,0,100,0.00,40.00,0,-999,0,0.01
2013-9-30,81,62,41,-100,-100,-100,0,0,100,0.00,40.00,0,-999,0,0.00
2013-10-1,76,66,55,-100,-100,-100,0,0,100,0.00,40.00,0,-999,0,0.00
2013-10-2,80,67,52,-100,-100,-100,0,0,100,0.00,40.00,0,-999,0,0.00
2013-10-3,82,66,58,-100,-100,-100,0,0,100,0.00,40.00,0,-999,0,0.00
2013-10-4,64,55,41,-100,-100,-100,0,0,100,0.00,40.00,0,-999,0,0.00
2013-10-5,54,44,36,-100,-100,-100,0,0,100,0.00,40.00,0,-999,0,0.00
2013-10-6,69,54,42,-100,-100,-100,0,0,100,0.00,40.00,0,-999,0,0.00
2013-10-7,81,57,36,-100,-100,-100,0,0,100,0.00,40.00,0,-999,0,0.00
2013-10-8,83,67,49,-100,-100,-100,0,0,100,0.00,40.00,0,-999,0,0.00
2013-10-9,83,69,50,-100,-100,-100,0,0,100,0.00,40.00,0,-999,0,0.00
2013-10-10,84,68,47,-100,-100,-100,0,0,100,0.00,40.00,0,-999,0,0.58
2013-10-11,68,58,49,-100,-100,-100,0,0,100,0.00,40.00,0,-999,0,0.58
2013-10-12,63,54,47,-100,-100,-100,0,0,100,0.00,40.00,0,-999,0,0.00
2013-10-13,66,54,39,-100,-100,-100,0,0,100,0.00,40.00,0,-999,0,0.00
2013-10-14,68,58,45,-100,-100,-100,0,0,100,0.00,40.00,0,-999,0,0.38
2013-10-15,51,44,37,-100,-100,-100,0,0,100,0.00,40.00,0,-999,0,0.09
2013-10-16,59,42,29,-100,-100,-100,0,0,100,0.00,40.00,0,-999,0,0.00
2013-10-17,58,42,30,-100,-100,-100,0,0,100,0.00,40.00,0,-999,0,0.00
2013-10-18,50,39,32,-100,-100,-100,0,0,100,0.00,40.00,0,-999,0,0.01
2013-10-19,67,45,29,-100,-100,-100,0,0,100,0.00,40.00,0,-999,0,0.01
2013-10-20,59,47,34,-100,-100,-100,0,0,100,0.00,40.00,0,-999,0,0.00
2013-10-21,63,45,28,-100,-100,-100,0,0,100,0.00,40.00,0,-999,0,0.00
2013-10-22,66,55,44,-100,-100,-100,0,0,100,0.00,40.00,0,-999,0,0.00
2013-10-23,70,49,33,-100,-100,-100,0,0,100,0.00,40.00,0,-999,0,0.00
2013-10-24,49,39,28,-100,-100,-100,0,0,100,0.00,40.00,0,-999,0,0.00
2013-10-25,62,45,30,-100,-100,-100,0,0,100,0.00,40.00,0,-999,0,0.00
2013-10-26,60,47,33,-100,-100,-100,0,0,100,0.00,40.00,0,-999,0,0.00
2013-10-27,79,56,29,-100,-100,-100,0,0,100,0.00,40.00,0,-999,0,0.00
2013-10-28,55,46,39,-100,-100,-100,0,0,100,0.00,40.00,0,-999,0,0.01
2013-10-29,43,41,40,-100,-100,-100,0,0,100,0.00,40.00,0,-999,0,0.05
2013-10-30,51,41,29,-100,-100,-100,0,0,100,0.00,40.00,0,-999,0,0.05
2013-10-31,62,45,28,-100,-100,-100,0,0,100,0.00,40.00,0,-999,0,0.04
2013-11-1,60,47,36,-100,-100,-100,0,0,100,0.00,40.00,0,-999,0,0.00
2013-11-2,61,44,26,-100,-100,-100,0,0,100,0.00,40.00,0,-999,0,0.00
2013-11-3,72,54,43,-100,-100,-100,0,0,100,0.00,40.00,0,-999,0,0.00
2013-11-4,55,45,28,-100,-100,-100,0,0,100,0.00,40.00,0,-999,0,0.00
2013-11-5,41,36,25,-100,-100,-100,0,0,100,0.00,40.00,0,-999,0,0.54
2013-11-6,51,36,27,-100,-100,-100,0,0,100,0.00,40.00,0,-999,0,0.01
2013-11-7,55,39,25,-100,-100,-100,0,0,100,0.00,40.00,0,-999,0,0.00
2013-11-8,69,48,32,-100,-100,-100,0,0,100,0.00,40.00,0,-999,0,0.00
2013-11-9,61,48,29,-100,-100,-100,0,0,100,0.00,40.00,0,-999,0,0.00
2013-11-10,57,42,26,-100,-100,-100,0,0,100,0.00,40.00,0,-999,0,0.00
2013-11-11,41,33,26,-100,-100,-100,0,0,100,0.00,40.00,0,-999,0,0.00
2013-11-12,42,28,12,-100,-100,-100,0,0,100,0.00,40.00,0,-999,0,0.00
2013-11-13,64,42,26,-100,-100,-100,0,0,100,0.00,40.00,0,-999,0,0.00
2013-11-14,60,44,34,-100,-100,-100,0,0,100,0.00,40.00,0,-999,0,0.00
2013-11-15,60,42,23,-100,-100,-100,0,0,100,0.00,40.00,0,-999,0,0.00
2013-11-16,61,47,37,-100,-100,-100,0,0,100,0.00,40.00,0,-999,0,0.00
2013-11-17,54,44,23,-100,-100,-100,0,0,100,0.00,40.00,0,-999,0,0.00
2013-11-18,62,38,20,-100,-100,-100,0,0,100,0.00,40.00,0,-999,0,0.00
2013-11-19,60,43,26,-100,-100,-100,0,0,100,0.00,40.00,0,-999,0,0.00
2013-11-20,66,47,30,-100,-100,-100,0,0,100,0.00,40.00,0,-999,0,0.00
2013-11-21,39,24,18,-100,-100,-100,0,0,100,0.00,40.00,0,-999,0,0.00
2013-11-22,33,23,16,-100,-100,-100,0,0,100,0.00,40.00,0,-999,0,0.00
2013-11-23,29,24,17,-100,-100,-100,0,0,100,0.00,40.00,0,-999,0,0.00
2013-11-24,36,27,16,-100,-100,-100,0,0,100,0.00,40.00,0,-999,0,0.00
2013-11-25,47,32,24,-100,-100,-100,0,0,100,0.00,40.00,0,-999,0,0.00
2013-11-26,38,27,8,-100,-100,-100,0,0,100,0.00,40.00,0,-999,0,0.00
2013-11-27,56,29,7,-100,-100,-100,0,0,100,0.00,40.00,0,-999,0,0.00
2013-11-28,37,29,17,-100,-100,-100,0,0,100,0.00,40.00,0,-999,0,0.00
2013-11-29,49,29,17,-100,-100,-100,0,0,100,0.00,40.00,0,-999,0,0.00
2013-11-30,63,38,20,-100,-100,-100,0,0,100,0.00,40.00,0,-999,0,0.00
2013-12-1,59,35,18,-100,-100,-100,0,0,100,0.00,40.00,0,-999,0,0.00
2013-12-2,67,45,31,-100,-100,-100,0,0,100,0.00,40.00,0,-999,0,0.00
2013-12-3,52,36,26,-100,-100,-100,0,0,100,0.00,40.00,0,-999,0,0.00
2013-12-4,26,19,14,-100,-100,-100,0,0,100,0.00,40.00,0,-999,0,0.00
2013-12-5,15,10,3,-100,-100,-100,0,0,100,0.00,40.00,0,-999,0,0.00
2013-12-6,14,8,1,-100,-100,-100,0,0,100,0.00,40.00,0,-999,0,0.00
2013-12-7,12,5,-8,-100,-100,-100,0,0,100,0.00,40.00,0,-999,0,0.00
2013-12-8,14,10,-4,-100,-100,-100,0,0,100,0.00,40.00,0,-999,0,0.00
2013-12-9,20,8,-8,-100,-100,-100,0,0,100,0.00,40.00,0,-999,0,0.00
2013-12-10,39,22,12,-100,-100,-100,0,0,100,0.00,40.00,0,-999,0,0.00
2013-12-11,30,20,4,-100,-100,-100,0,0,100,0.00,40.00,0,-999,0,0.00
2013-12-12,49,28,12,-100,-100,-100,0,0,100,0.00,40.00,0,-999,0,0.00
2013-12-13,43,26,9,-100,-100,-100,0,0,100,0.00,40.00,0,-999,0,0.00
2013-12-14,48,28,13,-100,-100,-100,0,0,100,0.00,40.00,0,-999,0,0.00
2013-12-15,60,37,22,-100,-100,-100,0,0,100,0.00,40.00,0,-999,0,0.00
2013-12-16,61,40,26,-100,-100,-100,0,0,100,0.00,40.00,0,-999,0,0.00
2013-12-17,52,35,19,-100,-100,-100,0,0,100,0.00,40.00,0,-999,0,0.00
2013-12-18,72,44,26,-100,-100,-100,0,0,100,0.00,40.00,0,-999,0,0.00
2013-12-19,42,32,16,-100,-100,-100,0,0,100,0.00,40.00,0,-999,0,0.00
2013-12-20,26,18,14,-100,-100,-100,0,0,100,0.00,40.00,0,-999,0,0.00
2013-12-21,32,20,9,-100,-100,-100,0,0,100,0.00,40.00,0,-999,0,0.00
2013-12-22,33,20,5,-100,-100,-100,0,0,100,0.00,40.00,0,-999,0,0.00
2013-12-23,20,15,11,-100,-100,-100,0,0,100,0.00,40.00,0,-999,0,0.00
2013-12-24,44,28,16,-100,-100,-100,0,0,100,0.00,40.00,0,-999,0,0.00
2013-12-25,45,31,17,-100,-100,-100,0,0,100,0.00,40.00,0,-999,0,0.00
2013-12-26,55,36,17,-100,-100,-100,0,0,100,0.00,40.00,0,-999,0,0.00
2013-12-27,65,37,18,-100,-100,-100,0,0,100,0.00,40.00,0,-999,0,0.00
2013-12-28,64,40,18,-100,-100,-100,0,0,100,0.00,40.00,0,-999,0,0.00
2013-12-29,22,15,10,-100,-100,-100,0,0,100,0.00,40.00,0,-999,0,0.00
2013-12-30,51,30,13,-100,-100,-100,0,0,100,0.00,40.00,0,-999,0,0.00
2013-12-31,59,38,15,-100,-100,-100,0,0,100,0.00,40.00,0,-999,0,0.00
2014-1-1,24,19,10,-100,-100,-100,0,0,100,0.00,40.00,0,-999,0,0.00
2014-1-2,40,23,10,-100,-100,-100,0,0,100,0.00,40.00,0,-999,0,0.00